Location: Les Jeannots
(43.2262°N, 5.5774°E)
Time: 18:00:27
(UTC+00:00)

Cosmos 1869 - Pass Details

Date: 05 July 2020
Orbit: 520 x 563 km, 82.5° (Epoch: 13 August)

Event Time Altitude Azimuth Distance (km) Brightness Sun altitude
Rises 22:01:54 0° 348° (NNW) 2,702 8.3 -20.2°
Reaches altitude 10° 22:04:04 10° 346° (NNW) 1,813 7.1 -20.3°
Maximum altitude 22:08:01 66° 265° (W) 598 3.4 -20.6°
Enters shadow 22:08:46 53° 210° (SSW) 681 3.5 -20.7°
